Flag for Japan Weather past 2 weeks in Sendai, Japan

Now
34 °F

Partly cloudy.


Feels Like: 34 °F
Forecast: 26 / 38 °F
Wind: 1 mph from North

Location: Sendai Airport

Current Time: Jan 29, 2015 at 7:52:23 PM

Latest Report: Jan 29, 2015 at 7:00 PM


Visibility: N/A

Pressure: 30.33 "Hg

Humidity: 65%

Dew point: 23 °F

Location of SendaiLocation

Historic Weather in Sendai — Graph

°F

Sendai temperature yesterday

Maximum temperature yesterday: 39 °F (at 1:00 PM)
Minimum temperature yesterday: 28 °F (at 9:00 PM)
Average temperature yesterday: 34 °F

Past Weeks' High & Low Weather Summary

 TemperatureHumidityPressure
High52 °F (Jan 27, 1:00 PM)100% (Jan 15, 9:00 PM)30.45 "Hg (Jan 15, 9:00 PM)
Low23 °F (Jan 21, 6:00 AM)31% (Jan 29, 12:00 PM)29.53 "Hg (Jan 23, 6:00 AM)
Average38 °F66%30.01 "Hg
* Reported Jan 14 6:00 PM — Jan 29 6:00 PM, Sendai, Weather by CustomWeather, © 2014

Note: Actual official high and low records may vary slightly from our data, if they occured in-between our weather recording intervals... More about our weather records

Advertising

Sendai weather history for previous 24 hours

 ConditionsComfort  
Time TempWeatherWind HumidityBarometerVisibility
6:00 PM
Jan 29
36 °FPassing clouds.2 mph60%30.33 "HgN/A
5:00 PM39 °FPassing clouds.2 mph48%30.30 "HgN/A
4:00 PM39 °FPartly sunny.5 mph56%30.30 "HgN/A
3:00 PM41 °FBroken clouds.7 mph53%30.27 "HgN/A
2:00 PM45 °FScattered clouds.9 mph31%30.27 "HgN/A
1:00 PM43 °FPassing clouds.12 mph31%30.27 "HgN/A
12:00 PM43 °FScattered clouds.12 mph31%30.27 "HgN/A
11:00 AM43 °FScattered clouds.14 mph34%30.30 "HgN/A
10:00 AM37 °FScattered clouds.2 mph48%30.33 "HgN/A
9:00 AM36 °FPassing clouds.5 mph56%30.33 "HgN/A
8:00 AM27 °FPassing clouds.No wind80%30.33 "HgN/A
7:00 AM25 °FPassing clouds.3 mph80%30.30 "HgN/A
6:00 AM23 °FPassing clouds.2 mph86%30.27 "HgN/A
9:00 PM
Jan 28
28 °FPassing clouds.3 mph69%30.18 "HgN/A
8:00 PM30 °FPassing clouds.5 mph69%30.18 "HgN/A
7:00 PM30 °FSnow flurries. Passing clouds.9 mph69%30.15 "HgN/A
Weather by CustomWeather, © 2014

See weather overviewHow to use our weather pages